Regional Weather Roundup
Issued by NWS Newport/Morehead, NC

Current Version | Previous Version | Text Only | Print | Product List | Glossary Off
Versions: 1 2 3 4 5 6 7 8 9 10 11 12 13 14 15 16 17 18 19 20 21 22 23 24 25 26 27 28 29 30 31 32 33 34 35 36 37 38 39 40 41 42 43 44 45 46 47 48 49 50

000
ASUS42 KMHX 252012
RWRMHX
WEATHER ROUNDUP FOR EASTERN NORTH CAROLINA
NATIONAL WEATHER SERVICE NEWPORT/MOREHEAD CITY NC
400 PM EDT SAT APR 25 2015

NOTE: "FAIR" INDICATES FEW OR NO CLOUDS BELOW 12,000 FEET
WITH NO SIGNIFICANT WEATHER AND/OR OBSTRUCTIONS TO VISIBILITY

NCZ015>017-031-032-045>047-102-103-252100-
NORTH COAST

CITY           SKY/WX    TMP DP  RH WIND       PRES   REMARKS
EDENTON        DRIZZLE   56  51  84 E3        29.80F
ELIZABETH CITY CLOUDY    55  40  56 NE12      29.81F
KITTY HAWK     CLOUDY    54  47  76 NE6       29.81S
MANTEO         CLOUDY    56  44  64 E7        29.82F

$$

NCZ045>047-081-094-103-104-252100-
CENTRAL COAST

CITY           SKY/WX    TMP DP  RH WIND       PRES   REMARKS
FRISCO         CLOUDY    60  53  77 W10G16    29.79F
SWANQUARTER      N/A     61 N/A N/A W6        29.77S

$$

NCZ095-097-098-100-101-252100-
SOUTHERN COAST

CITY           SKY/WX    TMP DP  RH WIND       PRES   REMARKS
BEAUFORT       CLOUDY    62  55  77 SW6       29.77F
CEDAR ISLAND     N/A     64 N/A N/A SW5G10    29.82S
JACKSONVILLE   CLOUDY    63  55  75 S8        29.76F
PINEY ISLAND   CLOUDY   N/A N/A N/A SW7       29.77F
WILMINGTON     CLOUDY    64  57  78 SE7       29.75F


$$

NCZ011>013-027>030-043-044-078>080-089-090>093-098-252100-
COASTAL PLAIN

CITY           SKY/WX    TMP DP  RH WIND       PRES   REMARKS
AHOSKIE        DRIZZLE   51  48  90 E3        29.79F
CLINTON        CLOUDY    62  58  86 S5        29.75F
ELIZABETHTOWN  CLOUDY    63  56  80 SE3       29.74F
GOLDSBORO      CLOUDY    58  58 100 SE7       29.72F
GREENVILLE     DRIZZLE   55  55 100 S5        29.80F
HAVELOCK       CLOUDY    63  54  72 SW6       29.78F
KENANSVILLE    MOSUNNY   61  54  77 SE5       29.77F
KINSTON        CLOUDY    57  54  88 E5        29.77F
NEW BERN       CLOUDY    62  53  72 CALM      29.79F
RICHLANDS      CLOUDY    63  54  72 S5        29.77F
ROCKY MOUNT    LGT RAIN  56  54  93 SE3       29.74F FOG
WASHINGTON     RAIN      57  55  94 SW5       29.79F
WHITEVILLE     CLOUDY    65  59  79 SE5       29.73F

$$

AMZ130-135-150-152-154-156-158-170-250-252-270-ANZ085-086-088-633-658-670-252100-
MARINE OBSERVATIONS

STATION/POSITION TIME  TEMP    WIND        PRES    WAVE   SWELL
                       AIR SEA DIR/SP/G            HT/PER HT/PER
                 (UTC) (F)     (DEG/KT/KT) (MB)    (FT/S) (FT/S)
CHESAPEAKE LIGHT 1900   48      70/ 10/ 11 1012.0
64 E VA BEACH    1950   54 59   60/ 10/ 12 1009.6    2/ 5   2/ 5
DUCK             1900   53 55   50/ 11/ 14 1009.8
2 E DUCK         1911      55                N/A     2/12   2/12
10 NE DUCK       NOT AVBL
OREGON INLET     1900   56 58   60/  7/ 10 1010.1
HATTERAS CG      1900   64 65  200/  6/  9 1008.6
DIAMOND BUOY     1950   66 72  230/ 16/ 17 1008.3    3/ 9   2/ 9
CAPE LOOKOUT     2000   62     220/  2/  4 1008.0
BEAUFORT LAB     1900   61 63  220/  5/  8 1008.8
27 SE WRIGHTSVLE NOT AVBL
5 SE WRIGHTSVLE  1908   63 65  120/  6/ 10 1008.8
225 S CAPE HAT   1950   68 70  220/ 16/ 17 1013.1    4/ 9   3/ 9
41 SE CHARLESTON 1950   71 72  190/ 25/ 31 1006.1    5/ 6   2/11

$$



USA.gov is the U.S. government's official web portal to all federal, state and local government web resources and services.